Flag for Germany Weather past 2 weeks in Soltau, Lower Saxony, Germany

Now
73 °F

Scattered clouds.


Feels Like: 77 °F
Forecast: 53 / 81 °F
Wind: 15 mph from West

Location: Fassberg

Current Time: Jul 6, 2015 at 3:52:08 PM

Latest Report: Jul 6, 2015 at 3:20 PM


Visibility: N/A

Pressure: 30.12 "Hg

Humidity: 44%

Dew point: 50 °F

Location of SoltauLocation

Historic Weather in Soltau — Graph

°F

Soltau temperature yesterday

Maximum temperature yesterday: 90 °F (at 1:20 PM)
Minimum temperature yesterday: 66 °F (at 3:20 AM)
Average temperature yesterday: 75 °F

Past Weeks' High & Low Weather Summary

 TemperatureHumidityPressure
High99 °F (Jul 4, 2:20 PM)100% (Jun 22, 9:20 PM)30.30 "Hg (Jun 22, 9:20 PM)
Low48 °F (Jun 22, 11:20 PM)27% (Jul 4, 6:20 PM)29.65 "Hg (Jun 22, 9:20 PM)
Average66 °F69%30.06 "Hg
* Reported Jun 21 2:20 PM — Jul 6 2:20 PM, Soltau, Weather by CustomWeather, © 2015

Note: Actual official high and low records may vary slightly from our data, if they occured in-between our weather recording intervals... More about our weather records

Advertising

Soltau weather history for previous 24 hours

 ConditionsComfort  
Time TempWeatherWind HumidityBarometerVisibility
2:20 PM
Mon, Jul 6
72 °FScattered clouds.14 mph47%30.12 "HgN/A
1:20 PM72 °FScattered clouds.16 mph47%30.12 "HgN/A
12:20 PM70 °FScattered clouds.14 mph53%30.12 "HgN/A
11:20 AM70 °FPassing clouds.15 mph53%30.12 "HgN/A
10:20 AM68 °FPassing clouds.14 mph60%30.09 "HgN/A
9:20 AM66 °FPassing clouds.12 mph68%30.09 "HgN/A
8:20 AM63 °FScattered clouds.12 mph83%30.07 "HgN/A
7:20 AM61 °FScattered clouds.8 mph88%30.07 "HgN/A
6:20 AM61 °FPassing clouds.10 mph88%30.07 "HgN/A
5:20 AM61 °FPassing clouds.9 mph88%30.04 "HgN/A
4:20 AM63 °FPassing clouds.10 mph88%30.04 "HgN/A
3:20 AM63 °FPassing clouds.10 mph94%30.04 "HgN/A
2:20 AM64 °FPartly cloudy.10 mph88%30.01 "HgN/A
1:20 AM66 °FPassing clouds.8 mph100%29.98 "HgN/A
12:20 AM68 °FLight rain. Fog.5 mph94%29.95 "Hg3 mi
11:20 PM
Sun, Jul 5
68 °FThunderstorms. Partly cloudy.6 mph94%29.95 "Hg5 mi
10:20 PM68 °FThunderstorms. Broken clouds.7 mph94%29.95 "Hg5 mi
9:20 PM70 °FThunderstorms. Broken clouds.6 mph94%29.89 "Hg5 mi
8:20 PM72 °FThunderstorms. Partly sunny.12 mph88%29.86 "Hg5 mi
7:49 PM72 °FThunderstorms. Fog.14 mph94%29.95 "Hg3 mi
7:20 PM77 °FThunderstorms. Broken clouds.12 mph79%29.92 "Hg5 mi
6:20 PM82 °FThunderstorms. Partly sunny.6 mph62%29.92 "HgN/A
5:20 PM86 °FPartly sunny.9 mph52%29.92 "HgN/A
4:20 PM86 °FScattered clouds.7 mph49%29.95 "HgN/A
3:20 PM82 °FPartly sunny.9 mph55%30.01 "HgN/A
Weather by CustomWeather, © 2015

See weather overviewHow to use our weather pages